Regional Weather Roundup
Issued by NWS Little Rock, AR

Home | Current Version | Previous Version | Text Only | Print | Product List | Glossary Off
Versions: 1 2 3 4 5 6 7 8 9 10 11 12 13 14 15 16 17 18 19 20 21 22 23 24 25 26 27 28 29 30 31 32 33 34 35 36 37 38 39 40 41 42 43 44 45 46 47 48 49 50

000
ASUS44 KLZK 221605
RWRLZK

WEATHER ROUNDUP FOR ARKANSAS
NATIONAL WEATHER SERVICE LITTLE ROCK AR
1100 AM CDT FRI AUG 22 2014

NOTE: "FAIR" INDICATES FEW OR NO CLOUDS BELOW 12,000 FEET WITH NO
SIGNIFICANT WEATHER AND/OR OBSTRUCTIONS TO VISIBILITY.

ARZ001-003-010-029-221700-
NORTHWEST ARKANSAS

CITY           SKY/WX    TMP DP  RH WIND       PRES   REMARKS
FAYETTEVILLE   MOSUNNY   87  72  60 SW15G21   30.07R HX  93
FORT SMITH     SUNNY     89  73  59 SW8       30.04R HX  97
HARRISON       MOSUNNY   87  70  56 S5        30.08S HX  92
BENTONVILLE    SUNNY     88  72  58 SW12      30.08R HX  94
ROGERS         SUNNY     88  70  55 SW12G23   30.08S HX  93
SILOAM SPGS    SUNNY     86  70  58 SW14      30.07S HX  90
HIGHFILL       SUNNY     88  71  57 SW13G20   30.06S HX  94
SPRINGDALE     MOSUNNY   86  72  62 SW9G16    30.09S HX  92
$$

ARZ004-005-016-221700-
NORTH CENTRAL ARKANSAS

CITY           SKY/WX    TMP DP  RH WIND       PRES   REMARKS
BATESVILLE     SUNNY     91  75  59 W10       30.05S HX 102
FLIPPIN        SUNNY     90  70  51 S7        30.06R HX  95
MTN HOME       SUNNY     89  71  55 S8        30.06R HX  95
$$

ARZ040-041-221700-
WEST CENTRAL ARKANSAS

CITY           SKY/WX    TMP DP  RH WIND       PRES   REMARKS
MENA           PTSUNNY   86  75  70 W7        30.10S HX  95
MOUNT IDA      SUNNY     85  74  69 VRB6      30.07R HX  92
$$

ARZ009-017-025-026-028-221700-
NORTHEAST ARKANSAS

CITY           SKY/WX    TMP DP  RH WIND       PRES   REMARKS
CORNING        FAIR      88  77  70 SW9       30.05F HX 100
JONESBORO      SUNNY     88  75  65 SW8       30.05F HX  97
NEWPORT        SUNNY     90  77  65 S9        30.06F HX 103
WALNUT RIDGE   SUNNY     88  73  62 S9        30.04S HX  96
BLYTHEVILLE    SUNNY     88  79  74 SW6       30.07S HX 103
$$

ARZ022-023-033-042-044-221700-
CENTRAL ARKANSAS

CITY           SKY/WX    TMP DP  RH WIND       PRES   REMARKS
LITTLE ROCK    SUNNY     88  72  58 SW10      30.07F HX  94
N LITTLE ROCK  SUNNY     87  74  64 W6        30.07F HX  96
JACKSONVILLE   SUNNY     88  75  65 W7        30.08R HX  97
SEARCY           N/A     89  77  67 CALM        N/A  HX 101
HOT SPRINGS    MOSUNNY   85  74  69 SW9       30.09R HX  92
RUSSELLVILLE   MOSUNNY   86  74  67 S5        30.06S HX  94
CLINTON        FAIR      88  75  66 S7        30.07S HAZE    HX  97
$$

ARZ036-221700-
EAST ARKANSAS

CITY           SKY/WX    TMP DP  RH WIND       PRES   REMARKS
WEST MEMPHIS   SUNNY     87  77  72 SW8       30.07S HX  99
$$

ARZ050-053-066-070-073-221700-
SOUTHWEST ARKANSAS

CITY           SKY/WX    TMP DP  RH WIND       PRES   REMARKS
ARKADELPHIA    FAIR      88  76  67 SW10      30.09R HX  99
CAMDEN         SUNNY     86  73  66 W5        30.09R HX  93
TEXARKANA      SUNNY     84  73  69 SW10      30.10R HX  90
EL DORADO      SUNNY     85  73  67 W8        30.10S HX  91
DE QUEEN       PTSUNNY   84  75  74 SW7       30.07S HX  92
$$

ARZ056-057-069-221700-
SOUTHEAST ARKANSAS

CITY           SKY/WX    TMP DP  RH WIND       PRES   REMARKS
PINE BLUFF     SUNNY     87  72  60 W9        30.09R HX  93
STUTTGART      SUNNY     88  75  66 SW8       30.09S HX  97
MONTICELLO     SUNNY     86  73  65 SW8       30.10R HX  93

$$




USA.gov is the U.S. government's official web portal to all federal, state and local government web resources and services.